AirNav   Everest Fuels
 
 442 users online  

47KY B M H Heliport
Hardinsburg, Kentucky, USA

GOING TO HARDINSBURG?


FAA INFORMATION EFFECTIVE 21 MAY 2020

Location

FAA Identifier: 47KY
Lat/Long: 37-45-57.7000N 086-26-22.9300W
37-45.961667N 086-26.382167W
37.7660278,-86.4397028
(estimated)
Elevation: 730 ft. / 223 m (estimated)
729
Variation: 01W (1985)
From city: 1 mile SE of HARDINSBURG, KY
Time zone: UTC -5 (UTC -6 during Standard Time)
Zip code: 40143

Heliport Operations

Heliport use: Private use. Permission required prior to landing
Activation date: 09/1980
Control tower: no
ARTCC: INDIANAPOLIS CENTER
FSS: LOUISVILLE FLIGHT SERVICE STATION
Attendance: CONTINUOUS
Wind indicator: lighted
Segmented circle: no
Lights: FOR HELIPAD LIGHTS CALL 270-756-6534.
Beacon: white-green-yellow (heliport)
FOR ROTG BCN CALL 270-756-6534.

Nearby radio navigation aids

VOR radial/distance  VOR name  Freq  Var
MYSr231/(12.0)MYSTIC VOR108.2001W
FTKr250/23.7FORT KNOX VOR/DME109.6001W
OWBr092/34.5OWENSBORO VOR/DME108.6004W
EWOr282/37.1NEW HOPE VOR/DME110.8001E

 
NDB name  Hdg/Dist  Freq  Var  ID
GODMAN245/24.839603WGOI --. --- ..

Heliport Services

Runway Information

Helipad H1

Dimensions: 69 x 69 ft. / 21 x 21 m
Surface: concrete
Runway edge lights: PERI
Latitude: 37-45.961667N
Longitude: 086-26.382167W
Elevation: 730.0 ft.
Traffic pattern: leftleft
Markings: , in good condition
Obstructions: 40 ft. pline, marked and lighted, 37 ft. from runway
PLINE LCTD 37FT SE OF HELIPAD.

Heliport Ownership and Management from official FAA records

Ownership: Privately-owned
Owner: BRECKINRIDGE MEMORIAL HOSP
1011 OLD HIGHWAY 60
HARDINSBURG, KY 40143-9732
Phone 270-756-0701
Manager: BRECKINRIDGE MEMORIAL HOSP
1011 OLD HIGHWAY 60
HARDINSBURG, KY 40143-9732
Phone 270-756-0701
CONTACT RICKY MOORE, DIRECTOR OF RISK MANAGEMENT

Heliport Operational Statistics

Aircraft based on the field: 1
Helicopters: 1
    

Additional Remarks

FOR CD CTC LOUISVILLE APCH AT 502-375-7499

Instrument Procedures

There are no published instrument procedures at 47KY.

Some nearby airports with instrument procedures:

I93 - Breckinridge County Airport (1 nm N)
KTEL - Perry County Municipal Airport (19 nm NW)
KY8 - Hancock County Airport-Ron Lewis Field (23 nm NW)
M20 - Leitchfield-Grayson County Airport (24 nm S)
KFTK - Godman Army Airfield (24 nm E)
 
Loc | Ops | Rwys | IFR | FBO | Links
Com | Nav | Svcs | Stats | Notes
Area around 47KY (B M H Heliport)
 
Road maps at: MapQuest Bing Google
 
Aerial photo
No photo
 
Sectional chart

 
Airport distance calculator
Flying to B M H Heliport? Find the distance to fly.

From to 47KY

Sunrise and sunset
Times for 07-Jun-2020
 Local
(UTC-5)
 Zulu
(UTC)
Morning civil twilight04:5409:54
Sunrise05:2510:25
Sunset20:0501:05
Evening civil twilight20:3601:36

Current date and time
Zulu (UTC)  07-Jun-2020 06:36:57
Local (UTC-5)  07-Jun-2020 01:36:57
 
METAR
KKY8 
23nm NW 
070615Z AUTO 03004KT 9SM CLR 22/22 A2999 RMK A01
KFTK 
23nm E 
070556Z AUTO 36003KT 10SM CLR 21/21 A3000 RMK AO2 SLPNO T02070207 10298 20207 50004 $
KEKX 
27nm E 
070615Z AUTO 36003KT 7SM CLR 22/20 A3000 RMK AO2 T02210200
KOWB 
35nm W 
070556Z AUTO 03005KT 10SM CLR 26/23 A2998 RMK AO2 SLP149 T02560228 10328 20250 403390217 53006
KHNB 
38nm NW 
070556Z AUTO 02004KT 10SM CLR 23/21 A3001 RMK AO2 SLP157 T02330206 10311 20228 53006
KSDF 
42nm NE 
070556Z 36005KT 10SM CLR 26/18 A2999 RMK AO2 SLP149 T02560178 10322 20256 53007
KBRY 
45nm E 
070615Z AUTO 00000KT 10SM CLR 22/18 A2998 RMK AO1
KI19 
45nm W 
070615Z AUTO 00000KT 10SM CLR 18/10 A3004 RMK AO2 T01820099
KFRH 
45nm N 
070615Z AUTO 05007KT 10SM CLR 22/14 A3002 RMK AO1
KLOU 
45nm NE 
070553Z AUTO 34004KT 10SM CLR 25/17 A2999 RMK AO2 SLP149 T02500167 10328 20250 53007 $
TAF
KFTK 
23nm E 
070100Z 0701/0807 VRB06KT 9999 FEW030 QNH2994INS TX29/0720Z TN19/0711Z
NOTAMs
Click for the latest NOTAMs
NOTAMs are issued by the DoD/FAA and will open in a separate window not controlled by AirNav.

 

 
 

Would you like to see your business listed on this page?

 If your business provides an interesting product or service to pilots, flight crews, aircraft, or users of the B M H Heliport, you should consider listing it here.  To start the listing process, click on the button below
 
Add a business
 

Other Pages about B M H Heliport

Update a link
 
Copyright © AirNav, LLC. All rights reserved. Privacy Policy  Contact